This is the latest recevied weather packets stored in our database for station/object K6MBY. If no packets are shown the sender has not sent any weather packets the latest 10 day(s).
| Time | Temp. | Humidity | Pressure | Rain* | Wind** | Luminosity | Snow |
|---|---|---|---|---|---|---|---|
| 1777905848 | 18.89° C | 48% | 1013.8 hPa | 0 mm | - | 203 W/m² | - |
| 1777905545 | 18.33° C | 48% | 1013.7 hPa | 0 mm | - | 184 W/m² | - |
| 1777905242 | 17.78° C | 47% | 1013.7 hPa | 0 mm | - | 171 W/m² | - |
| 1777904939 | 17.78° C | 49% | 1013.5 hPa | 0 mm | - | 152 W/m² | - |
| 1777904636 | 17.78° C | 47% | 1013.6 hPa | 0 mm | - | 146 W/m² | - |
| 1777904333 | 17.22° C | 49% | 1013.7 hPa | 0 mm | - | 129 W/m² | - |
| 1777904030 | 17.22° C | 49% | 1013.5 hPa | 0 mm | - | 114 W/m² | - |
| 1777903727 | 17.22° C | 51% | 1013.5 hPa | 0 mm | - | 106 W/m² | - |
| 1777903423 | 16.67° C | 52% | 1013.5 hPa | 0 mm | - | 95 W/m² | - |
| 1777903119 | 16.67° C | 51% | 1013.5 hPa | 0 mm | - | 84 W/m² | - |
| 1777902816 | 16.67° C | 51% | 1013.4 hPa | 0 mm | - | 73 W/m² | - |
| 1777902514 | 16.11° C | 52% | 1013.5 hPa | 0 mm | - | 63 W/m² | - |
| 1777902210 | 15.56° C | 53% | 1013.2 hPa | 0 mm | - | 54 W/m² | - |
| 1777901908 | 15.56° C | 53% | 1013.5 hPa | 0 mm | - | 46 W/m² | - |
| 1777901606 | 15.56° C | 53% | 1013.3 hPa | 0 mm | - | 39 W/m² | - |
| 1777901303 | 15.56° C | 53% | 1013.2 hPa | 0 mm | - | 31 W/m² | - |
| 1777901000 | 15.56° C | 52% | 1013.3 hPa | 0 mm | - | 25 W/m² | - |
| 1777900698 | 15.56° C | 54% | 1013.2 hPa | 0 mm | - | 20 W/m² | - |
| 1777900395 | 15.56° C | 53% | 1013.1 hPa | 0 mm | - | 16 W/m² | - |
| 1777900092 | 15° C | 55% | 1013.1 hPa | 0 mm | - | 13 W/m² | - |
| 1777899788 | 15° C | 55% | 1013.2 hPa | 0 mm | - | 10 W/m² | - |
| 1777899485 | 15° C | 54% | 1013 hPa | 0 mm | - | 7 W/m² | - |
| 1777899182 | 15° C | 54% | 1013.1 hPa | 0 mm | - | 4 W/m² | - |
| 1777898880 | 15° C | 56% | 1013.2 hPa | 0 mm | - | 3 W/m² | - |
| 1777898577 | 15.56° C | 57% | 1013 hPa | 0 mm | - | 2 W/m² | - |
* Rain latest hour (hover to see other rain measurements)
** Current wind speed in m/s (hover to see current wind gust speed)